OBJECT A, 68980

Orbit data source: Space-Track

You're viewing an Uncataloged Satellite

Recently launched and/or uncataloged satellites may have evolving metadata. Metadata may include but not limited to: Owner, Maufacturer, Bus, Motor, and Mission.

OBJECT A, 68980 is a satellite in SSO that was launched on Sun, 03 May 2026 UTC via an FALCON 9 launch vehicle from the Air Force Western Test Range (AFWTR). Unknown objects in Earth's orbit typically refer to objects detected orbiting the Earth but have not yet been identified or cataloged. These objects could be anything from previously untracked satellites, spent rocket stages, debris from satellite collisions, or even natural meteoroids temporarily captured by Earth's gravity.

Loading next visibility...
Identifier
68980, 2026-100A
Orbit
SSO
Country
Flag of TBDTBD
Related business
None
Manufacturer
Unknown
Mission
Operational spacecraft
Bus & Motor
Unknown
Mass
Unknown
Launch date (UTC)
2026-05-03 (1 week ago)
Launch vehicle
FALCON 9
Launch site
Air Force Western Test Range (AFWTR)
Object type
Unknown
Shape & HBR
Unknown
Radar Cross Section
RCS unknown

Expand to show TLE details & history
Last TLE update: 6 hours ago

TLE from 6 hours ago
0 OBJECT A
1 68980U 26100A   26130.18036897  .00001259  00000-0  13488-3 0  9998
2 68980  97.7402  28.3273 0005610 275.2727  84.7851 14.90416194  1026
Epoch: 2026-05-10T04:19Z
TLE epoch observation values (Epoch: 2026-05-10T04:19:43.879Z)
Latitude
0.00002°
Longitude
95.40732°
Altitude
599.324 km
Speed
7.56 km/s
True Right ascension
01h 53m 18s
True Declination
0° 00' 00"
Sunlit
Object was in daylight at epoch
Visualization orbit readout
Latitude
Unknown
Longitude
Unknown
Altitude
Unknown
Speed
Unknown
Apparent Right ascension
Unknown
Apparent Declination
Unknown
Sunlit
N/A
Visualization observer readout
Local Sidereal Time
18:57:56
Azimuth
Unknown
Elevation
Unknown
Doppler factor
Unknown
Orbital elements
Apogee altitude
597.568 km
Perigee altitude
589.746 km
Semi-major axis
6,971.794 km
Eccentricity
0.00056
Inclination
97.7402°
RAAN
28.3273°
Arg. of periapsis
275.2727°
True anomaly
84.84912°
Mean anomaly
84.7851°
Eccentric anomaly
84.81711°
Mean motion
3.72843 °/min
Orbital period
96.56 mins
BSTAR
0.00013488
Loading maneuver chart data...
Computing Atmospheric mass density...
Loading historical data...
Loading historical data...
Loading historical data...
Loading historical data...
Loading historical data...
Loading historical data...
Loading historical data...

Documentation

Showing up to 5 results
|